Theta_e
341 350 359 359 358 359 360 360 359 357 357 358 358 358 359 359 359 360 360 360 359 359 359 359 358 358 360 359 359 358 359 359 359 360 361 361 362 362 363 362 362 357 362
344 352 361 359 359 359 361 360 360 360 360 360 360 359 359 360 359 359 360 360 360 359 358 358 358 358 357 357 358 355 356 359 359 358 359 359 360 362 362 362 361 360 361
348 353 357 362 360 360 361 361 360 359 359 359 360 359 359 360 360 360 359 359 358 357 357 358 359 359 358 358 356 354 353 356 358 359 360 355 355 357 360 361 361 361 362
351 353 355 363 361 360 361 361 361 362 361 360 360 360 361 361 359 359 359 359 360 359 358 356 353 356 356 356 357 357 355 356 357 358 351 349 352 356 359 359 359 359 362
351 353 355 361 361 359 361 360 362 361 362 362 360 360 359 359 358 358 358 357 356 355 356 356 357 357 352 354 356 356 355 354 353 355 348 343 349 351 356 356 358 359 361
350 352 358 363 359 359 361 361 360 361 358 358 359 359 358 357 355 354 353 354 354 354 353 354 357 359 358 356 353 353 353 355 355 352 352 346 348 346 358 357 357 359 361
349 351 356 362 360 361 360 360 360 358 355 354 353 353 353 353 353 354 354 354 355 355 355 357 358 359 359 359 359 359 358 356 352 350 349 349 349 351 356 358 359 359 361
350 353 355 361 361 362 360 359 356 356 357 357 356 355 355 356 356 356 357 357 357 358 359 360 361 361 360 360 360 361 360 359 355 354 353 351 351 354 357 362 362 361 362
352 351 353 355 358 360 357 357 359 359 357 356 356 357 357 357 358 359 359 359 360 360 360 361 361 361 361 361 361 361 361 361 358 356 354 354 356 359 360 361 363 363 363
350 351 350 350 352 351 354 361 359 358 357 357 358 358 359 361 362 363 365 364 360 361 360 361 361 362 363 362 362 362 361 361 360 357 357 355 359 360 361 362 363 362 364
348 347 349 347 350 352 353 354 360 358 359 360 359 361 362 359 358 360 361 364 364 364 364 364 364 367 365 364 363 363 362 360 358 357 356 356 360 360 361 362 362 362 362
342 345 347 347 348 350 354 351 351 353 354 354 355 355 356 356 357 357 359 360 363 366 367 365 365 367 366 363 361 364 363 361 360 357 355 356 359 362 362 363 362 362 363
341 344 347 345 347 348 348 345 344 348 348 350 352 353 354 355 358 357 353 352 355 356 353 348 353 357 359 359 357 356 355 357 358 358 357 358 361 362 362 360 363 363 362
340 342 343 345 344 345 346 344 342 344 347 350 354 354 351 353 353 352 346 340 347 356 355 352 351 355 355 355 355 355 354 353 352 353 357 360 362 363 364 362 360 359 359
338 341 342 343 343 344 344 345 346 345 348 350 353 356 355 351 348 348 343 342 344 349 352 354 355 355 356 356 355 354 354 354 352 350 358 359 363 360 361 361 354 351 352
338 339 341 342 343 344 344 345 349 352 351 351 352 356 357 351 350 346 346 349 351 356 357 356 354 354 354 354 354 355 355 355 354 354 357 356 363 361 361 355 353 354 354
337 338 339 341 346 347 348 350 353 351 350 352 352 354 357 353 349 345 352 354 357 359 354 356 354 352 351 345 344 347 350 355 355 355 355 355 361 362 359 358 357 356 354
336 336 339 346 347 349 352 352 353 352 352 349 352 354 357 356 351 343 355 356 358 353 354 355 352 351 350 344 345 343 343 352 355 353 352 352 353 355 358 359 358 355 353
336 337 339 344 346 348 351 353 355 356 355 355 352 354 355 357 355 349 355 356 357 356 354 353 352 352 346 344 341 342 342 345 348 350 349 348 350 351 352 357 355 353 351
337 338 340 342 345 347 350 352 354 354 354 355 354 353 355 355 357 355 354 355 357 355 354 352 351 350 345 341 336 339 343 345 345 347 345 346 345 344 347 347 350 347 349
338 338 339 341 343 345 347 348 349 347 350 348 350 353 356 355 356 351 353 346 354 355 357 355 353 347 347 342 339 336 339 344 343 342 343 342 341 339 338 343 344 342 344
336 338 339 339 341 344 348 350 350 350 351 351 354 355 355 354 354 353 353 346 352 358 355 355 353 345 343 343 337 330 329 332 332 341 343 341 339 340 338 340 342 339 340
335 337 337 339 341 344 347 350 350 350 348 349 351 352 352 353 355 356 352 345 352 358 357 355 353 349 340 345 338 336 329 328 330 328 334 337 341 340 340 340 341 338 337
335 338 338 338 341 344 347 348 347 345 343 346 348 351 352 355 354 357 355 353 351 356 356 356 355 352 346 343 342 339 337 337 330 329 331 332 337 337 337 337 338 336 336
336 336 336 337 341 344 346 348 346 344 345 348 348 348 348 353 353 355 356 357 355 357 356 356 352 350 351 346 342 340 337 337 334 329 324 327 331 333 334 333 333 333 334
334 336 336 336 340 344 345 346 345 344 344 344 345 343 345 351 351 352 352 354 354 356 357 354 355 352 349 346 343 341 333 332 333 331 327 327 327 330 331 332 330 330 333
Wind_Speed
3 5 10 10 10 9 10 11 13 12 11 11 10 10 11 10 10 10 10 11 11 9 8 8 7 6 6 5 6 6 7 7 8 10 10 10 10 11 12 13 12 10 13
7 6 9 10 9 9 12 10 12 11 10 10 10 9 9 9 10 9 9 10 9 8 8 7 6 6 5 4 5 4 4 5 6 6 8 9 9 8 10 11 11 10 11
9 6 6 9 10 10 10 11 11 11 11 10 10 10 10 9 9 9 8 8 7 7 7 7 7 6 5 4 4 4 2 3 5 5 8 5 4 6 8 10 9 9 12
8 5 5 9 9 10 10 10 9 10 12 10 10 9 9 9 8 8 7 7 6 5 5 5 4 3 3 2 2 1 1 2 4 5 3 3 3 3 7 8 7 7 10
6 6 6 11 11 10 9 10 9 9 9 8 8 7 7 6 5 5 5 4 3 2 2 2 2 3 2 2 2 3 1 1 2 1 1 2 1 3 3 4 5 7 8
6 6 8 13 11 11 9 8 7 7 6 6 6 5 5 4 3 2 2 3 3 2 1 2 3 3 4 3 3 2 3 3 4 1 2 1 2 3 2 3 4 5 7
6 5 6 11 11 10 9 8 7 6 6 5 4 4 3 2 3 3 4 5 4 4 4 5 4 4 4 4 5 5 7 7 4 3 4 3 3 6 5 5 5 5 7
5 4 5 11 11 9 9 8 7 7 6 4 4 4 4 5 5 6 8 7 7 7 7 7 6 6 6 7 6 8 9 8 6 4 5 4 7 8 9 9 8 9 9
4 3 2 3 7 8 7 7 7 7 5 5 6 6 6 7 7 8 8 8 8 8 8 7 7 7 7 7 8 9 8 8 4 4 5 3 7 11 12 11 12 11 11
3 2 2 2 2 3 4 8 8 7 6 7 7 8 8 8 8 8 8 8 9 9 8 9 9 9 9 9 9 8 8 9 5 4 4 4 9 11 9 13 11 11 12
3 3 3 4 3 4 4 4 6 7 7 8 6 7 5 3 4 6 6 8 10 11 10 10 10 9 8 9 10 10 9 3 5 3 3 6 10 11 8 9 9 10 12
5 5 5 4 4 4 4 4 3 4 3 3 2 4 3 4 4 5 3 5 8 7 8 8 7 9 9 2 3 7 3 6 4 5 3 9 9 10 9 8 8 10 10
5 3 6 5 5 5 3 2 2 1 2 2 4 4 3 2 1 2 2 1 2 4 2 3 4 3 3 3 4 4 5 5 4 4 6 7 7 9 9 7 8 10 10
6 8 5 6 5 5 2 3 3 2 3 3 3 4 2 1 2 3 2 3 3 2 3 3 2 4 5 5 6 6 5 5 4 4 5 8 7 7 8 7 7 7 8
6 6 7 6 6 5 4 3 3 4 3 3 3 3 2 2 2 2 3 3 2 2 3 3 3 4 4 5 5 7 7 7 7 3 2 8 10 7 6 5 6 6 7
7 8 6 7 6 5 5 5 4 2 3 3 3 4 4 3 2 3 3 3 2 2 2 2 3 3 3 2 4 6 7 7 8 6 4 5 12 11 8 8 7 6 5
7 6 8 7 6 6 6 5 3 3 2 2 3 4 3 3 2 3 3 3 2 2 4 1 1 0 1 1 2 4 5 8 8 8 6 3 4 12 12 10 9 8 7
6 8 7 6 7 6 5 3 2 4 2 3 3 3 4 4 3 4 3 2 2 3 3 2 2 2 1 1 3 3 4 6 5 4 2 5 2 5 9 11 10 10 10
10 8 7 7 7 6 4 3 4 5 3 3 3 3 5 4 4 3 3 3 2 2 2 1 1 1 1 2 3 3 3 2 2 4 5 4 6 3 3 9 11 10 9
10 8 7 6 6 5 3 2 3 3 4 3 2 3 5 4 5 3 2 3 3 2 1 1 1 2 2 3 2 5 5 3 4 3 3 3 4 5 4 2 3 4 9
7 8 9 8 7 4 2 2 1 3 2 3 2 4 5 4 3 3 3 3 4 1 2 3 2 4 2 2 2 3 3 4 4 4 2 3 2 3 3 2 2 2 2
12 12 8 8 7 6 3 2 2 2 2 3 3 2 2 3 4 4 4 4 1 1 3 3 2 3 2 2 1 1 2 2 2 3 4 1 4 2 3 5 5 5 3
10 11 10 9 8 6 6 2 0 1 1 2 2 1 1 3 4 5 4 4 2 1 2 2 2 0 2 1 2 1 1 2 2 2 6 4 1 3 3 3 4 4 3
12 9 8 8 8 7 8 4 4 3 2 1 1 2 4 3 5 4 4 4 4 2 4 4 3 3 2 3 0 1 2 2 2 2 2 2 1 2 2 2 2 3 4
11 11 10 7 6 6 7 6 5 4 2 1 1 3 4 4 3 3 4 4 5 4 5 5 3 5 3 2 3 3 1 1 2 2 2 2 1 1 0 1 3 2 2
8 8 8 8 9 7 7 7 8 7 5 3 3 3 3 2 2 3 4 4 5 6 7 5 4 4 4 4 4 2 1 4 3 2 1 2 3 2 3 2 3 3 2
Wind_Direction
192 167 157 141 137 134 131 120 126 127 127 120 118 118 114 110 110 106 109 118 119 120 120 114 112 103 93 102 86 74 74 81 91 99 97 94 107 109 113 124 122 125 126
137 174 158 148 148 139 122 131 130 133 132 134 129 121 119 118 113 119 125 126 122 127 126 124 131 121 112 102 93 79 75 66 73 84 91 83 80 117 119 118 134 137 134
145 155 157 153 152 138 134 125 137 144 139 136 142 131 126 127 125 125 120 115 127 136 135 136 140 136 128 136 150 161 120 50 47 43 54 43 36 57 119 121 138 143 136
142 143 142 152 146 146 137 139 148 149 141 146 136 134 129 131 134 134 130 129 132 126 122 116 115 126 146 163 166 172 97 32 26 49 53 42 10 71 100 136 144 147 143
127 139 158 158 161 153 148 153 158 159 142 140 133 134 135 130 127 128 121 115 121 122 115 119 144 152 164 201 218 204 165 327 309 57 90 349 323 4 105 136 151 156 153
138 147 172 166 159 163 159 155 158 150 148 148 152 156 152 154 168 188 185 183 191 200 217 232 238 214 214 218 243 274 251 251 243 262 248 290 181 263 239 193 183 175 175
146 155 161 159 164 165 162 168 161 163 176 170 165 181 199 207 214 230 238 245 246 246 246 243 243 247 243 231 227 235 239 242 225 224 237 231 241 250 241 209 207 205 189
138 147 173 171 172 168 169 178 180 186 185 187 194 212 227 238 239 241 244 245 248 242 243 248 251 254 250 238 234 234 235 237 243 217 233 222 221 232 225 218 210 205 212
113 144 192 161 183 171 184 192 195 196 196 210 221 233 239 240 245 246 248 248 248 251 249 251 251 251 255 255 248 248 256 255 241 237 249 238 235 234 231 225 207 209 215
104 160 205 205 185 181 209 199 207 210 211 224 231 235 240 244 245 252 250 256 258 253 246 244 247 245 243 259 270 271 266 262 257 249 249 264 261 268 242 217 217 215 215
187 218 227 222 215 206 221 245 223 228 234 241 248 264 271 276 253 254 263 256 258 257 255 250 248 249 254 250 254 260 263 249 255 259 270 286 290 284 234 217 225 225 219
209 220 226 227 222 213 227 222 249 252 274 282 296 286 289 283 263 234 262 268 273 295 272 264 270 253 247 226 246 259 243 240 243 246 236 250 261 261 220 204 221 236 233
204 207 211 221 224 215 231 250 250 252 268 275 252 248 264 286 278 202 212 275 276 268 271 289 281 265 249 236 242 236 243 259 250 244 246 241 244 238 224 215 234 230 234
202 210 213 209 220 224 224 248 243 234 237 252 248 246 233 247 218 221 255 241 225 242 270 268 273 282 252 237 239 236 233 230 229 241 240 242 238 221 207 232 239 230 240
213 211 216 196 217 221 222 246 257 242 242 245 259 251 230 251 261 238 240 244 254 267 248 257 260 268 265 256 247 244 242 240 242 234 228 245 233 226 214 212 232 234 239
207 215 198 205 217 218 225 233 254 270 253 237 242 242 233 224 227 290 289 268 260 246 252 245 245 246 235 258 282 260 245 235 245 205 220 225 234 188 188 187 218 236 231
207 212 196 201 208 211 211 221 234 248 208 228 251 253 249 236 303 325 300 281 347 10 356 327 252 301 105 85 286 272 261 238 221 200 194 176 235 170 181 184 191 191 205
190 200 200 193 191 189 191 188 248 253 170 223 220 245 240 235 238 278 300 309 28 23 359 353 14 331 350 15 320 289 249 250 220 179 183 156 173 166 176 178 182 188 200
195 188 199 195 194 198 192 172 237 274 293 250 223 209 228 239 228 254 313 319 16 45 2 355 346 278 340 346 333 342 296 293 196 148 168 154 145 135 125 184 183 190 200
189 186 192 192 193 187 187 193 260 277 272 261 225 231 235 215 213 225 267 292 279 183 165 210 26 23 20 348 351 19 7 28 60 65 121 104 114 144 136 188 187 203 207
187 183 190 187 199 160 179 180 226 254 301 302 276 235 217 229 172 197 237 244 244 35 346 10 347 42 345 354 349 354 41 33 69 102 116 118 234 87 130 230 238 225 240
189 195 190 202 184 187 169 187 176 201 251 264 281 255 184 203 190 203 223 241 252 307 332 326 360 23 312 8 25 92 333 334 13 39 103 128 160 221 210 231 229 228 214
187 193 199 205 199 180 180 134 81 323 324 345 347 332 280 203 225 222 229 256 235 234 288 294 301 140 267 272 96 177 323 260 323 48 45 26 355 224 235 254 250 233 222
199 196 205 209 197 191 175 169 182 188 191 250 267 293 303 257 229 229 227 240 262 242 246 238 202 226 202 252 250 187 195 165 173 19 37 343 260 189 215 195 196 214 216
192 192 196 204 215 200 174 188 186 205 203 235 297 322 324 306 223 233 238 246 240 227 243 243 218 215 202 225 205 236 211 67 68 124 274 266 227 260 349 183 137 151 221
189 187 184 192 212 199 186 191 196 206 199 204 250 265 286 311 303 267 255 248 243 231 229 241 270 237 229 219 242 240 69 28 348 267 224 277 237 210 196 179 163 149 122